Theta_e
308 309 308 308 308 308 308 308 308 308 308 309 309 309 309 309 309 309 309 309 310 310 310 310 311 311 311 311 311 311 311 312 313 313 314 314 314 314 314 314 313 314 314 314 314 314 313 313 314 313 314 314 314 316 316 317 315 318 326 325 316 317 317 317 321 317 315 318 314 313 314 314 315 315 314 314 314 314 315 314 314 315 314 314 314 313 314 314
309 309 309 309 309 309 309 309 309 309 309 309 309 309 309 309 309 309 310 310 310 310 311 311 311 311 311 311 311 311 312 312 313 313 314 314 314 314 314 314 314 314 314 314 314 314 314 313 314 313 314 314 314 316 316 317 314 319 324 318 319 326 317 312 316 313 313 315 313 314 313 313 314 314 314 315 314 314 314 314 314 314 314 314 313 314 314 314
311 310 309 309 309 309 309 309 309 309 309 309 309 309 310 310 310 310 310 310 311 310 310 310 311 311 311 311 311 311 311 312 313 314 314 313 314 314 314 314 315 315 314 315 314 314 314 313 314 314 314 314 315 316 315 317 315 315 317 320 326 322 312 311 313 313 314 314 313 314 313 312 314 313 314 314 313 313 312 314 314 313 314 313 313 314 314 314
311 311 310 310 309 309 309 309 309 309 309 309 309 309 310 309 310 310 310 310 310 310 310 310 311 310 311 311 311 311 311 313 314 313 313 313 314 314 314 315 315 315 314 314 314 314 314 313 314 313 314 314 314 315 314 315 316 314 316 324 321 311 312 315 313 314 314 313 314 313 312 313 313 313 313 312 313 313 312 312 312 312 312 312 313 313 313 314
312 312 311 311 310 309 309 309 309 309 309 309 309 309 310 310 310 310 310 310 310 311 310 310 311 310 311 311 311 311 311 315 316 313 313 314 314 313 313 314 315 315 314 314 314 314 313 313 314 314 314 314 314 314 314 314 315 315 316 317 314 310 315 316 314 315 314 313 313 312 313 313 313 312 312 312 313 313 312 311 311 311 311 312 313 312 313 313
312 312 312 311 311 310 310 310 309 309 309 309 309 310 310 310 310 310 310 310 310 310 310 310 310 310 310 311 311 311 312 314 314 313 313 314 314 314 314 314 314 315 314 314 314 313 313 313 313 314 313 313 313 313 313 314 314 317 316 312 312 313 315 316 314 314 313 312 312 312 313 312 311 312 312 311 311 312 311 311 311 311 311 312 312 312 313 314
311 311 311 312 311 311 310 310 310 310 309 309 309 309 309 310 310 310 310 310 310 310 310 310 310 310 310 310 311 311 312 313 313 314 314 313 314 314 314 314 314 315 314 315 314 313 312 313 313 314 314 312 312 311 313 315 313 317 318 313 313 313 313 314 313 313 312 312 312 312 311 311 311 312 311 310 310 310 310 311 310 311 311 311 312 313 313 314
310 310 310 311 311 311 311 310 310 310 310 309 309 309 309 309 309 309 310 309 310 309 310 310 310 310 310 310 311 312 313 313 313 314 314 314 314 314 314 314 314 315 315 315 314 313 312 313 313 313 313 312 311 312 311 312 313 316 318 313 312 313 313 313 312 313 313 313 313 312 310 311 311 311 310 310 309 309 310 310 310 311 311 312 312 313 313 313
308 309 309 309 310 310 311 311 310 310 310 309 310 309 309 309 309 309 309 310 309 310 310 310 310 310 311 311 312 314 314 314 315 316 316 317 317 316 316 316 316 317 316 316 315 313 313 313 313 313 313 312 311 311 311 313 314 314 315 312 311 312 312 313 313 313 313 313 313 311 311 311 310 311 310 309 309 309 309 310 311 311 312 312 312 312 312 312
307 307 307 308 308 309 309 310 310 310 309 309 309 309 309 309 309 309 309 309 309 309 309 310 310 310 312 313 314 315 315 315 316 317 318 319 319 319 318 318 318 318 317 316 315 313 313 313 314 314 313 313 312 311 311 313 313 312 311 311 312 312 312 312 313 312 312 312 311 311 312 310 309 311 312 309 308 309 310 310 311 311 312 311 310 310 311 311
307 307 307 307 307 308 308 308 308 308 309 309 309 309 309 309 309 309 309 309 309 310 310 311 312 313 314 315 316 316 315 316 317 317 318 319 319 320 319 319 318 318 317 316 315 313 313 313 314 314 314 313 312 312 311 311 312 311 311 312 312 311 312 313 311 310 311 312 311 310 310 309 309 311 311 308 308 309 310 311 311 311 311 310 310 310 310 311
307 307 307 307 307 307 307 307 307 307 308 308 308 308 308 308 309 309 309 310 311 313 313 314 315 316 316 316 316 316 316 317 317 317 318 318 318 319 318 317 317 317 318 316 314 313 313 314 313 315 315 313 313 312 312 312 312 312 311 314 315 313 315 312 308 308 310 312 311 310 313 315 312 310 309 309 309 309 310 312 311 310 310 310 310 310 310 311
308 308 308 308 307 307 307 307 307 308 308 308 309 309 309 310 311 312 313 314 315 316 316 317 316 316 316 315 317 317 317 317 317 317 317 317 317 317 317 316 316 316 317 315 314 314 315 315 314 315 314 313 313 313 313 310 310 313 310 312 316 317 319 312 307 309 310 311 311 311 318 322 313 306 308 311 310 310 311 311 310 310 310 310 310 310 310 310
308 308 308 308 308 308 308 308 309 309 310 311 311 312 313 314 315 316 316 316 317 316 316 316 316 316 315 317 318 318 318 318 318 318 317 317 317 316 316 315 315 315 315 314 315 316 316 316 315 314 313 313 313 312 314 313 313 315 310 315 318 316 323 317 307 309 312 311 310 311 319 322 313 306 308 311 310 310 310 309 309 309 309 309 309 309 309 309
308 309 308 309 309 309 310 310 311 312 313 315 315 316 317 317 317 317 317 316 316 316 316 316 316 316 316 317 318 318 318 318 318 318 317 317 317 316 316 316 315 314 315 315 315 316 315 316 315 314 313 312 313 314 320 320 321 320 313 322 322 315 323 321 307 307 312 311 309 312 319 320 312 306 308 310 309 310 309 307 307 307 308 308 308 308 308 308
309 309 309 309 310 311 312 313 314 315 316 317 318 318 317 317 316 316 316 315 315 315 316 316 316 316 316 317 317 318 318 317 317 317 317 316 316 316 315 315 314 314 315 315 315 315 315 315 313 313 312 312 316 322 325 322 324 322 315 323 325 317 319 318 310 306 308 309 309 312 317 319 312 304 307 309 308 310 308 306 305 306 307 306 307 307 307 307
310 310 311 311 312 313 314 315 317 317 318 318 318 317 316 315 315 315 315 314 315 315 315 316 316 316 317 316 316 316 317 317 317 316 316 316 315 315 314 315 315 315 315 315 315 314 315 314 313 313 312 310 314 321 325 321 324 323 315 317 321 317 315 317 316 309 306 310 312 312 313 316 313 304 306 308 307 309 307 305 305 304 305 305 306 306 306 307
311 312 313 314 314 315 315 316 317 317 317 317 316 315 314 314 314 314 314 314 314 314 315 315 315 317 318 316 316 316 316 316 316 316 316 316 315 315 314 315 315 315 315 314 314 314 314 312 313 316 314 311 313 318 321 321 325 328 320 318 319 316 314 316 317 311 309 313 315 315 313 315 314 308 305 306 306 307 305 303 304 304 304 304 305 305 305 306
312 313 315 316 316 316 317 317 316 316 316 315 314 313 313 313 313 313 314 314 315 316 317 316 315 318 318 316 315 316 316 316 316 316 316 316 315 315 315 314 315 315 314 314 314 312 313 312 313 318 316 313 314 315 318 319 322 326 324 324 323 318 316 316 316 311 309 313 315 314 314 314 314 311 306 304 305 305 304 303 303 303 303 303 304 304 305 305
313 315 316 316 317 316 316 316 315 315 314 314 313 313 313 314 315 316 315 314 315 316 317 317 316 316 316 315 315 315 315 315 315 316 316 316 315 315 315 314 314 313 313 316 316 311 311 315 317 318 317 315 314 313 315 317 317 318 319 320 319 318 317 316 315 310 306 311 316 313 313 313 313 313 305 302 304 303 302 302 302 302 302 302 303 303 304 304
314 316 317 316 316 316 316 315 314 314 313 313 312 313 314 314 316 317 316 316 316 315 315 315 315 316 315 315 316 315 315 315 315 316 316 315 315 315 314 313 314 314 311 312 312 310 311 316 318 316 314 314 314 312 312 314 315 314 314 315 316 315 315 313 313 311 307 310 315 312 312 314 314 314 304 301 304 302 301 301 300 301 301 301 302 302 303 303
315 316 317 316 315 315 315 314 313 313 312 312 312 313 314 315 316 316 316 317 317 316 316 316 315 315 315 315 316 315 315 316 316 316 316 315 315 315 313 313 315 315 311 310 312 313 313 316 316 312 309 310 313 312 311 312 312 312 312 312 314 314 314 315 313 312 309 310 316 315 312 314 314 309 302 300 301 300 300 301 300 300 300 300 301 302 302 303
315 316 316 315 315 314 314 313 313 313 312 312 312 312 314 315 316 316 317 319 320 318 317 318 317 316 316 316 316 315 315 316 316 315 316 315 315 314 312 312 315 316 313 313 316 316 317 319 315 308 307 311 314 313 312 312 311 312 312 312 314 314 315 319 316 312 311 309 313 314 312 313 312 305 302 300 299 299 299 300 299 299 300 300 300 301 302 303
315 316 316 315 315 314 314 314 313 313 312 312 312 312 313 315 317 318 318 319 322 321 318 319 318 318 319 317 317 317 315 316 316 316 316 315 314 313 311 311 314 315 313 313 315 316 319 317 309 307 310 313 314 313 313 313 313 314 313 312 314 314 315 318 315 313 314 311 310 311 314 318 314 309 306 301 299 299 298 298 298 298 299 299 299 300 301 303
315 315 315 315 315 314 314 313 312 312 312 312 312 312 314 316 317 319 319 322 325 322 319 320 319 320 320 319 319 317 316 316 316 317 316 315 315 313 311 311 313 316 314 313 313 315 318 313 308 311 314 313 314 315 315 315 315 316 316 314 313 314 315 315 313 313 317 318 312 309 318 326 320 315 310 303 301 301 298 298 297 297 297 298 299 300 301 302
315 315 315 315 314 314 314 313 312 312 313 313 312 313 316 318 319 318 319 326 328 322 319 320 320 321 320 320 318 317 318 318 315 317 316 315 315 314 313 312 311 314 314 313 313 315 316 310 310 317 317 314 314 315 316 314 315 317 317 315 312 312 313 314 314 315 319 320 312 308 316 325 324 321 312 303 302 302 299 298 297 297 297 298 298 299 300 302
315 315 314 314 314 314 314 313 313 312 313 314 313 315 317 318 319 317 320 328 327 321 321 320 319 319 318 318 317 319 323 319 314 315 315 314 314 313 315 314 312 312 310 312 317 316 314 311 311 314 316 316 315 315 315 312 316 320 316 315 315 312 314 316 315 317 319 318 314 313 315 317 320 319 309 302 305 303 300 300 298 297 297 297 298 299 300 301
314 314 314 314 314 314 314 313 314 313 313 315 314 316 319 318 319 318 324 331 326 318 319 317 315 315 316 317 317 317 318 316 316 315 312 313 313 312 316 315 315 315 309 313 322 315 312 316 316 314 315 315 315 317 315 312 317 319 312 311 315 314 315 317 315 316 315 313 318 320 315 315 321 319 308 303 306 305 303 302 299 297 297 297 298 299 300 301
314 314 314 313 314 314 313 314 315 314 315 317 316 318 319 319 319 319 324 328 323 317 317 316 313 314 315 315 314 313 311 311 315 314 310 312 312 311 315 313 312 314 309 311 322 316 310 312 313 314 317 317 316 315 311 314 316 311 306 309 312 312 314 315 316 317 313 313 321 322 316 316 323 324 314 307 310 311 307 303 299 297 297 297 298 299 300 301
314 314 314 313 314 314 313 313 314 315 316 318 318 319 319 319 321 324 325 326 324 318 313 313 313 312 314 315 314 310 309 310 311 311 310 311 311 310 312 312 309 313 313 311 317 315 308 306 308 312 315 313 312 308 304 309 310 305 309 315 315 315 316 316 317 316 315 318 321 317 315 315 319 325 320 313 313 312 308 303 299 297 297 297 298 299 300 300
315 315 314 314 314 314 313 313 313 315 318 319 320 319 319 320 323 328 327 324 324 318 313 313 311 311 315 317 317 311 308 309 308 311 312 310 311 311 311 313 312 317 318 315 315 313 308 309 309 309 309 307 309 308 304 304 304 307 318 320 317 318 317 317 318 316 318 324 319 311 311 313 318 325 320 314 311 307 305 305 300 297 297 297 298 299 299 300
317 315 315 315 315 314 313 314 313 316 320 321 320 319 320 322 323 328 327 323 324 320 316 316 312 313 316 316 315 312 311 311 308 311 313 311 312 312 313 316 317 321 322 317 317 314 312 314 310 308 307 308 314 314 308 306 306 311 319 319 319 322 320 322 323 318 319 320 312 309 312 313 316 320 316 314 312 304 301 302 299 298 298 298 299 299 298 299
320 317 315 315 316 315 313 314 313 316 321 321 320 319 321 325 326 326 325 325 325 318 314 316 313 314 316 315 314 311 312 313 310 311 311 311 313 312 313 314 315 323 324 317 316 316 317 316 310 310 310 309 314 316 314 313 311 312 317 319 322 324 326 329 324 317 318 316 309 308 312 314 317 316 313 311 306 300 298 299 299 299 299 300 299 299 299 298
322 320 318 316 317 316 314 314 314 316 321 321 320 320 322 326 327 326 325 325 323 317 315 315 313 314 316 316 316 313 314 314 310 311 311 311 314 314 315 312 310 319 322 316 316 318 321 320 314 314 313 310 312 314 316 317 312 312 315 317 320 324 327 328 325 323 322 317 311 309 312 320 321 314 306 302 298 297 299 299 299 300 300 300 299 298 299 298
323 321 320 317 317 317 316 314 314 317 321 320 320 322 324 325 325 327 327 324 321 318 315 313 313 315 315 315 314 312 315 314 311 312 313 313 315 315 317 314 310 317 320 318 318 315 318 322 316 310 308 309 311 309 310 314 313 311 312 315 318 321 323 319 315 316 317 316 314 312 315 320 316 307 299 297 297 296 298 298 299 299 299 299 298 297 297 297
323 320 319 317 317 318 318 316 315 318 320 319 322 323 323 324 324 326 325 322 321 317 313 313 316 317 316 314 314 311 311 314 312 313 313 312 315 314 316 316 311 312 316 319 320 316 317 320 313 308 307 307 308 307 306 311 315 312 311 317 316 314 320 319 310 307 309 316 317 314 317 316 311 308 301 298 300 299 297 297 298 298 298 298 297 297 297 298
322 320 318 317 318 318 319 317 316 318 319 318 322 323 322 322 323 323 322 319 317 314 314 317 317 318 316 314 315 313 312 314 313 313 314 313 314 314 315 316 312 310 314 317 319 320 322 321 312 310 312 307 303 306 305 305 311 314 315 317 312 309 317 320 316 314 314 318 318 315 316 316 315 316 307 301 305 304 298 296 296 296 297 297 296 297 298 299
321 319 318 318 318 319 320 319 317 318 318 319 322 323 322 322 318 318 318 316 315 315 318 321 319 318 317 315 316 314 313 316 313 312 315 314 315 315 315 316 312 309 311 312 315 318 320 322 315 309 311 309 305 309 311 306 306 312 313 312 312 316 319 316 317 321 319 320 320 314 311 313 315 317 314 310 311 308 300 296 296 296 296 296 297 298 299 299
320 318 317 318 318 318 319 320 318 317 319 320 321 321 321 321 316 315 317 317 318 319 320 323 322 321 318 316 318 314 313 317 313 312 316 314 315 314 312 315 314 309 309 310 315 318 316 320 319 310 309 310 309 312 316 312 307 308 309 308 311 317 319 316 316 318 319 320 321 316 313 315 315 315 318 317 312 306 302 298 297 296 296 297 298 299 300 300
319 317 317 318 318 318 319 319 318 318 319 320 320 319 319 319 316 315 317 318 319 320 322 324 324 324 320 317 318 316 315 317 312 313 317 315 315 315 311 315 315 310 309 309 314 319 317 318 320 313 309 311 314 314 315 314 311 310 311 312 312 313 314 316 314 313 316 320 321 319 317 318 316 312 315 317 311 304 302 302 299 297 297 298 299 300 301 300
318 317 317 317 318 319 318 318 317 317 319 320 319 318 318 317 317 316 316 317 318 318 320 324 323 324 323 320 319 318 317 317 313 315 318 316 317 319 313 312 313 312 311 311 315 320 319 319 320 316 312 315 318 314 310 312 312 312 313 313 314 313 314 317 315 312 313 316 318 318 317 317 316 310 310 312 308 301 300 301 299 297 298 299 300 301 301 300
317 317 317 317 319 319 317 317 317 317 319 319 318 318 316 316 316 316 315 316 318 318 318 321 323 323 323 322 321 320 318 317 315 316 318 318 319 319 312 309 310 311 313 315 317 315 314 318 319 318 317 316 314 308 304 307 310 311 313 314 313 313 315 318 317 315 313 313 313 314 316 316 310 303 303 304 301 299 299 299 298 298 299 300 300 300 300 300
316 315 315 316 318 318 317 317 317 317 317 317 316 316 316 315 316 316 315 315 317 317 317 319 320 320 321 321 320 320 318 316 316 317 318 319 317 313 308 308 310 311 313 316 316 313 313 317 318 318 319 314 310 307 304 305 310 312 313 313 312 313 315 316 316 316 316 315 313 313 316 315 306 298 298 298 297 298 299 298 298 298 299 299 298 298 298 299
313 313 313 315 316 316 317 318 317 317 317 315 315 316 315 315 315 316 316 316 316 317 318 319 317 317 319 320 319 319 318 317 316 316 317 319 316 309 307 309 311 312 312 315 317 314 315 318 318 318 319 316 313 313 311 309 311 314 315 313 312 313 314 313 313 313 314 315 315 315 316 316 309 301 299 299 298 298 297 298 299 298 298 298 298 298 299 299
312 312 311 312 314 314 315 317 316 316 316 315 316 316 315 315 315 315 316 316 315 316 317 316 315 316 317 318 318 318 318 317 316 315 316 317 314 308 307 309 311 311 311 312 314 314 315 317 318 318 319 318 317 318 317 315 313 313 313 313 313 312 311 313 314 313 313 314 314 314 316 315 310 306 305 304 303 302 299 298 299 298 299 299 299 300 300 299
309 311 311 311 312 312 312 313 314 315 316 316 315 316 316 315 314 314 315 315 314 314 315 314 314 316 317 316 316 316 316 316 316 315 316 317 314 308 306 307 309 310 310 310 312 313 314 315 316 317 317 317 318 318 314 314 316 315 314 314 314 311 309 312 315 314 314 315 314 313 314 314 312 310 310 308 306 307 302 297 298 299 300 301 301 300 299 299
307 309 309 310 311 311 311 312 312 314 315 315 315 315 315 316 315 314 314 315 314 314 314 313 314 315 315 314 314 315 315 315 315 315 315 316 314 308 304 305 307 308 308 308 309 313 315 314 314 316 316 315 317 316 312 313 317 317 315 315 314 311 309 311 312 313 315 315 315 314 313 315 315 312 312 311 310 310 304 299 299 302 302 301 301 299 298 298
305 306 306 306 308 309 311 311 312 313 314 313 314 313 314 314 314 314 314 312 313 314 314 313 314 314 314 315 315 315 315 315 314 314 315 315 314 309 307 306 305 306 307 306 307 311 315 315 314 315 314 313 313 313 312 313 314 314 315 316 315 313 311 310 311 312 314 314 314 314 313 314 315 314 315 314 312 310 306 303 302 303 303 302 300 300 300 300
303 304 303 304 305 305 307 310 311 312 312 312 311 311 312 313 312 312 312 312 312 314 314 314 314 314 314 315 316 316 315 316 315 314 314 315 314 313 312 311 306 304 305 307 306 308 312 314 313 313 314 314 312 310 309 311 311 311 312 313 314 313 311 310 311 311 311 312 312 311 311 312 312 313 313 310 306 305 304 303 303 303 303 303 302 301 301 301
302 303 303 303 303 302 303 307 309 309 309 309 310 310 310 312 313 312 312 313 313 314 314 315 315 314 314 315 316 316 315 316 317 316 315 314 313 313 313 314 310 304 304 308 307 307 310 313 310 310 313 313 309 306 306 307 308 310 310 310 310 310 309 309 310 310 310 310 309 308 309 309 308 307 307 306 303 303 303 303 303 304 303 303 302 302 302 301
302 302 302 303 304 303 303 305 307 308 308 308 309 309 310 311 312 313 313 311 312 314 314 314 315 314 313 313 315 315 313 314 315 315 314 314 313 313 312 312 311 307 306 307 307 308 309 309 307 309 313 312 306 304 305 305 305 307 309 308 307 307 308 308 307 308 309 310 309 308 308 309 307 303 302 302 301 301 302 302 302 302 302 302 302 302 302 302
301 301 301 303 305 304 303 304 306 307 309 309 308 308 310 310 310 312 312 309 309 312 313 313 314 314 313 312 313 313 312 311 312 311 311 311 310 310 310 309 309 308 307 306 307 308 308 308 308 309 312 310 303 302 304 305 306 309 309 309 308 307 307 306 305 307 307 308 310 309 308 309 306 302 302 302 299 298 300 301 301 301 300 300 300 300 301 301
Wind_Speed
4 4 4 4 4 4 4 4 3 3 3 3 2 2 2 2 2 2 2 2 2 3 3 4 5 6 6 7 8 8 9 9 11 12 12 11 8 3 2 5 4 3 3 4 5 4 3 3 3 3 3 3 4 4 4 4 4 2 2 3 1 1 2 4 6 5 3 1 3 6 9 3 3 6 8 9 6 7 12 14 11 8 7 7 9 11 15 15
6 6 5 5 5 5 5 4 4 4 4 4 3 4 3 3 3 3 4 4 4 4 4 5 6 7 8 9 9 10 10 10 12 11 8 5 2 6 9 7 5 4 5 6 6 5 4 4 3 3 3 3 4 3 3 3 4 3 3 2 1 4 3 4 6 6 3 2 5 8 7 3 4 7 9 6 8 12 12 13 10 6 4 5 10 13 13 12
8 8 7 7 6 6 6 5 5 5 5 5 5 5 5 5 5 5 5 5 5 6 6 6 7 8 9 10 11 10 10 12 11 5 3 7 9 10 9 6 5 6 8 8 7 6 4 3 2 2 3 3 3 3 3 3 3 2 4 2 4 5 3 4 4 4 4 5 7 7 5 6 7 6 6 4 11 13 6 7 9 9 12 13 15 14 10 7
10 10 10 9 8 8 7 7 7 6 6 6 6 6 6 6 6 6 6 7 7 7 7 7 8 9 10 10 11 10 11 12 5 4 7 8 7 5 4 3 5 8 10 9 8 6 4 2 1 2 2 2 3 2 2 3 2 2 3 2 4 3 1 3 2 2 3 5 6 7 6 7 6 4 5 3 6 8 4 4 7 12 17 18 15 10 7 6
12 12 12 11 10 10 9 9 8 8 8 8 8 8 7 7 7 8 8 8 8 8 9 9 9 10 11 11 10 10 9 7 1 7 6 3 1 1 3 5 6 9 11 9 8 5 3 2 1 1 2 2 3 2 1 2 2 2 2 2 4 4 1 3 2 3 4 4 6 7 6 6 6 5 6 4 3 5 8 12 14 15 15 13 9 5 4 6
14 13 13 13 12 12 11 11 10 10 9 9 9 9 9 9 9 9 9 10 10 10 10 10 10 11 11 11 10 10 6 2 2 4 3 4 6 7 9 10 11 12 11 9 7 5 2 2 2 0 2 2 2 2 1 1 2 1 2 1 2 4 4 5 5 5 6 6 7 7 8 7 6 6 5 5 5 6 12 14 13 10 8 6 4 3 4 7
15 15 14 14 14 13 13 13 12 11 11 11 11 11 10 10 10 10 11 11 11 11 11 11 11 11 11 11 10 9 7 6 6 6 8 11 12 13 14 14 14 13 11 8 7 4 3 3 2 2 3 2 1 2 2 2 3 2 2 2 1 4 6 7 8 9 11 12 13 11 10 10 6 5 5 4 3 5 7 6 4 2 1 1 1 3 6 7
17 17 16 15 15 15 14 14 14 13 13 12 12 12 11 11 11 12 12 12 12 12 12 12 12 11 11 11 10 9 11 11 9 10 12 13 14 14 14 14 14 13 10 7 6 3 3 3 3 3 2 0 2 2 3 1 1 3 2 2 1 5 7 9 11 14 15 15 16 12 11 11 7 5 4 3 1 2 2 0 1 2 2 2 1 2 4 4
18 18 17 17 16 16 15 15 15 15 14 14 13 13 13 13 12 12 13 13 13 13 13 12 12 12 10 11 10 9 11 10 7 8 9 10 11 11 12 11 11 11 9 7 5 4 4 4 4 3 1 2 3 2 4 2 2 3 3 2 3 7 10 11 13 14 14 14 13 8 10 9 2 2 1 4 2 1 1 3 4 3 2 1 2 3 4 4
18 18 18 17 17 16 16 16 16 15 15 15 15 14 14 14 13 13 13 14 14 14 13 13 13 12 11 12 8 5 9 9 7 7 6 7 7 7 7 7 7 8 7 7 6 5 5 4 3 3 2 2 4 2 4 3 1 1 1 4 7 10 12 12 13 14 13 13 12 8 8 5 3 3 2 5 4 2 3 4 3 0 2 5 7 7 7 7
17 18 18 18 17 17 16 16 16 16 16 16 15 15 14 14 14 14 14 14 14 14 13 13 13 13 12 12 8 7 9 10 7 7 7 7 7 6 6 6 7 7 7 7 6 5 6 5 3 4 2 2 3 2 4 3 1 1 3 6 9 10 12 12 11 10 7 7 7 6 6 2 3 3 3 5 5 2 2 2 1 2 4 6 7 8 8 9
18 18 18 18 17 16 16 16 16 15 16 15 15 15 14 14 14 14 14 14 14 14 14 14 13 13 12 12 15 15 14 13 11 10 9 9 9 9 9 10 10 9 9 7 7 7 6 5 4 3 3 4 3 0 2 2 1 2 4 4 8 9 8 8 4 1 0 2 2 1 3 4 2 4 5 6 3 0 2 1 0 1 3 4 5 6 6 7
18 18 18 18 17 16 16 16 15 15 15 15 14 14 14 14 14 14 14 14 15 14 14 14 13 13 11 11 17 16 14 15 15 14 14 14 14 14 14 13 11 10 9 8 8 8 6 5 5 4 4 5 3 2 2 2 1 2 3 2 5 7 6 4 3 1 1 2 1 2 3 4 0 3 6 8 2 2 2 1 1 2 3 3 3 4 5 6
19 18 18 17 17 16 16 16 15 15 15 14 14 14 14 15 15 15 15 15 15 14 14 13 12 12 10 12 16 16 15 15 14 14 14 14 15 14 13 11 10 9 9 9 8 7 6 5 5 5 5 4 3 4 1 3 3 2 1 2 3 2 5 5 3 2 2 1 3 4 1 4 3 1 7 9 3 1 0 4 4 3 3 3 3 3 5 6
19 19 19 18 18 17 17 16 16 15 15 15 15 15 15 15 15 15 15 15 14 14 13 12 12 10 9 12 15 15 16 17 17 17 15 14 14 12 11 10 10 10 9 9 8 7 6 5 6 5 5 4 4 5 2 4 3 2 1 3 2 1 5 7 4 1 1 1 2 5 2 4 3 1 9 8 2 0 4 6 5 5 4 3 3 4 4 5
19 19 19 19 18 18 18 17 17 17 16 16 16 16 16 15 15 15 15 15 14 13 13 11 11 9 6 9 13 14 14 14 14 15 15 16 14 12 11 10 10 10 9 8 7 6 6 7 6 5 4 5 4 4 3 3 3 3 0 3 2 1 3 6 4 3 2 1 2 2 2 4 2 3 9 7 3 2 6 7 6 6 5 4 4 4 4 4
20 20 20 20 19 19 19 18 18 17 17 17 16 16 16 15 15 15 14 14 13 13 11 9 9 8 8 11 13 13 14 13 13 13 12 13 14 13 12 11 11 10 8 7 7 7 8 8 6 4 2 3 3 4 3 2 4 2 1 2 3 3 2 4 3 3 4 3 1 3 1 5 4 3 9 7 5 3 7 8 6 6 6 5 4 4 4 4
21 21 21 20 21 21 20 19 18 18 17 17 16 16 15 15 15 14 14 14 12 9 9 10 7 2 8 15 14 11 10 11 12 12 11 12 12 12 12 11 10 10 9 8 8 9 8 5 4 1 2 2 2 5 3 5 4 3 2 2 3 3 3 4 4 2 4 3 2 3 2 8 8 1 9 8 5 5 8 8 6 6 6 5 5 5 5 5
22 22 21 21 22 21 21 20 18 18 18 17 16 15 14 14 13 13 14 13 12 7 4 9 12 4 3 8 11 11 9 8 10 11 12 12 12 12 11 10 10 12 11 7 5 8 7 4 4 1 2 4 5 7 9 7 5 6 5 4 3 4 4 5 5 3 1 2 4 6 6 8 9 4 6 6 5 7 9 7 6 6 5 5 6 6 6 6
22 22 21 21 22 22 21 20 19 19 18 17 16 13 11 9 6 8 13 16 19 17 12 11 14 12 6 4 6 8 7 8 9 10 12 12 12 12 12 11 11 9 7 5 4 5 6 4 3 6 7 7 8 10 7 4 6 5 4 3 4 4 5 5 4 4 1 1 5 5 4 7 8 5 4 2 4 7 7 6 7 6 6 6 6 7 6 7
23 22 22 21 21 21 20 19 18 19 18 17 16 12 9 8 4 3 7 13 18 21 21 19 17 16 13 9 6 6 7 8 9 11 12 13 13 11 12 11 8 4 3 5 5 4 5 5 8 9 6 6 7 7 4 3 4 3 3 3 3 4 6 6 3 4 0 2 4 1 1 7 7 3 5 2 2 4 4 5 6 6 6 6 6 7 6 6
23 22 21 20 21 20 19 19 18 18 18 17 17 16 11 10 9 7 6 8 13 16 19 21 22 22 21 17 12 9 9 8 9 13 13 15 16 12 12 10 5 4 3 5 6 3 3 5 11 8 6 7 3 5 6 3 3 2 2 2 3 3 3 5 3 4 2 3 3 3 2 8 5 1 4 4 4 4 4 4 5 6 6 7 7 7 7 7
22 21 20 20 20 19 19 18 18 19 19 19 20 19 15 11 9 8 7 7 11 16 18 21 24 27 26 24 20 17 13 11 12 15 16 18 19 15 14 10 4 4 5 5 6 5 4 6 10 8 9 7 3 4 7 3 2 3 3 3 5 3 1 4 3 3 2 1 2 2 3 6 2 1 3 4 6 7 7 5 6 5 6 7 7 7 8 9
21 20 20 20 19 19 18 17 18 20 21 21 20 18 15 12 9 6 7 5 7 11 16 20 22 25 26 23 20 20 20 18 14 15 20 23 21 14 12 10 6 5 6 9 8 6 5 4 3 7 8 7 4 3 6 4 3 3 5 6 6 4 5 6 3 3 2 3 1 1 4 5 1 1 0 2 4 6 6 6 6 5 6 6 7 8 9 10
22 22 21 20 20 18 17 17 21 22 22 21 19 16 13 11 7 3 3 3 5 6 10 15 17 20 23 20 18 18 18 18 16 16 20 26 23 12 7 9 7 5 7 7 5 4 6 4 5 7 4 6 6 4 5 7 4 3 5 10 9 7 7 6 1 3 3 3 2 1 2 4 2 2 3 2 1 2 2 4 5 5 6 6 7 9 10 12
24 23 22 21 21 17 16 19 22 23 22 20 16 14 13 9 6 3 2 3 5 3 4 9 10 10 14 16 17 15 7 9 16 19 20 25 25 14 6 6 3 3 6 6 3 3 3 2 4 5 5 6 5 4 6 7 4 2 5 8 9 7 6 4 3 3 1 2 2 2 1 3 5 4 2 3 2 1 1 2 4 5 6 7 8 10 12 14
25 25 23 23 21 21 20 20 21 22 20 17 15 14 13 11 9 4 3 3 5 5 7 7 8 8 10 13 20 15 2 4 12 16 20 24 22 14 7 4 3 2 5 5 1 2 3 3 3 4 5 5 4 4 5 7 7 3 4 5 6 7 7 6 6 4 3 2 3 3 2 2 4 4 1 3 3 0 1 1 3 6 7 8 10 11 14 17
26 25 24 24 23 24 25 20 18 21 18 13 15 17 15 14 11 6 4 2 3 5 6 5 8 9 11 16 21 13 3 7 8 9 18 22 19 11 6 6 6 4 4 6 4 3 3 5 5 6 5 4 5 4 7 10 5 4 2 5 6 6 6 5 5 3 1 1 3 3 2 2 4 4 2 1 2 2 4 5 5 8 10 10 12 13 16 19
26 26 25 25 23 24 25 22 18 19 17 13 16 18 17 16 11 5 3 3 2 4 3 6 8 8 13 16 13 6 5 5 3 7 15 17 16 8 3 7 8 6 2 2 4 3 1 3 6 8 5 5 4 1 7 9 3 4 6 6 5 5 5 4 4 3 2 1 4 5 3 2 4 4 1 1 3 5 5 5 6 11 12 13 15 17 18 21
27 27 26 25 25 26 27 27 23 19 17 16 18 20 20 16 8 4 3 4 2 3 4 7 6 7 13 11 3 1 3 2 4 11 11 9 11 6 6 7 7 6 2 4 1 3 0 1 2 4 4 5 5 3 2 4 5 8 7 6 6 5 4 3 2 3 2 2 5 5 2 2 2 5 3 3 3 4 5 4 5 11 15 16 17 19 21 22
29 28 27 26 28 29 30 32 28 21 20 19 21 24 21 9 3 4 7 2 1 2 4 4 2 6 11 7 2 3 2 2 6 10 6 4 6 5 7 6 3 4 2 3 1 3 2 1 1 3 6 7 8 5 4 4 6 7 4 4 4 3 3 3 4 2 1 4 5 3 1 3 3 4 3 4 3 3 5 6 8 13 18 21 20 21 22 23
32 30 29 28 29 30 31 32 27 23 22 22 25 27 17 3 2 7 5 2 1 3 4 3 2 5 7 3 3 4 3 2 3 5 4 3 4 4 4 4 4 3 1 4 2 2 1 3 2 2 5 7 6 5 4 4 4 4 3 5 4 2 3 2 3 1 3 5 3 2 1 2 5 6 4 5 4 3 4 7 13 20 23 25 24 24 23 24
34 32 30 30 30 31 33 30 26 25 24 25 28 22 9 3 7 10 8 3 2 2 4 3 2 5 7 4 2 3 3 2 3 2 2 3 3 4 2 2 5 4 1 4 3 1 2 4 1 3 3 7 8 5 3 1 3 4 4 5 4 2 2 1 3 2 3 3 2 2 1 1 4 5 3 4 3 3 4 7 16 25 29 29 28 26 25 25
33 31 32 32 32 32 32 29 26 26 25 29 26 12 5 7 7 6 9 6 1 2 3 3 5 6 5 4 3 5 3 1 4 4 2 3 4 5 4 3 3 3 4 3 2 4 3 3 4 5 2 8 9 5 5 6 4 4 4 5 4 4 4 3 3 3 3 2 2 3 1 3 4 2 2 2 3 4 5 7 14 22 27 29 28 27 26 26
34 33 33 33 33 33 32 31 28 27 31 33 19 6 8 9 4 3 7 5 1 2 3 3 6 6 3 1 2 5 4 2 4 4 2 4 4 4 5 5 5 4 4 4 2 2 2 4 4 1 1 6 7 3 5 7 3 2 2 4 3 4 4 2 2 4 3 1 2 2 2 4 4 1 2 2 2 3 4 7 14 20 24 26 27 27 27 27
38 37 36 35 37 37 34 33 30 30 37 32 12 7 11 7 3 3 3 4 4 6 6 3 3 4 3 2 2 6 3 2 4 4 2 3 3 4 4 4 7 7 5 5 3 2 2 3 4 3 3 2 2 2 3 3 3 2 2 3 4 3 6 4 1 1 3 1 3 2 3 3 1 1 2 2 1 2 2 5 14 19 23 25 27 28 29 29
41 40 40 40 41 39 37 36 33 34 37 24 8 9 7 3 4 4 2 4 6 8 9 4 3 5 5 4 4 7 4 2 4 4 3 3 3 5 5 4 7 11 9 5 2 2 4 1 3 2 1 2 1 4 6 5 3 4 3 5 3 2 4 3 1 2 3 2 4 1 3 2 1 2 2 1 3 4 3 5 10 17 22 25 28 30 31 31
41 40 41 44 43 40 41 39 37 40 32 14 8 10 4 2 4 4 4 5 5 6 6 4 5 5 5 5 4 7 6 4 5 4 4 4 3 6 8 4 7 14 16 8 1 1 4 1 3 1 1 0 2 5 5 5 4 4 3 3 3 3 1 2 2 1 1 3 4 2 2 3 4 4 2 4 8 8 6 5 8 15 23 27 30 33 33 32
39 32 30 40 43 41 41 40 44 44 24 6 10 11 3 3 4 5 10 7 3 4 4 3 3 2 4 5 3 5 7 6 7 6 4 4 3 6 8 4 5 11 14 11 4 1 3 2 2 1 1 2 2 2 3 1 3 3 2 1 1 2 3 2 2 2 2 2 3 3 2 3 5 6 8 11 12 11 9 8 10 18 27 31 34 37 37 37
37 21 17 33 40 40 41 41 42 34 13 6 11 7 2 3 4 7 14 9 2 2 3 3 4 3 3 3 1 3 5 5 8 5 3 5 3 3 5 3 4 5 7 9 5 1 2 1 2 1 2 2 2 2 5 6 3 2 2 2 1 1 2 1 1 2 2 2 2 3 4 4 4 4 8 10 9 12 15 13 14 20 28 33 38 41 42 41
33 12 10 25 33 38 41 33 25 15 6 8 11 5 3 4 4 8 13 10 4 2 2 3 4 3 3 3 1 2 2 3 6 3 2 4 3 2 2 2 6 7 6 7 5 2 2 2 3 2 1 3 3 3 2 4 4 4 4 5 5 4 3 1 3 1 2 2 3 2 5 6 3 2 4 5 5 10 17 15 14 23 32 38 42 44 43 42
26 7 8 21 27 36 36 19 8 8 6 7 8 6 5 4 4 7 9 8 4 2 1 2 3 3 4 4 3 3 3 2 3 2 1 3 2 1 0 1 7 10 6 4 3 2 3 3 3 2 3 3 3 2 0 2 2 3 3 4 4 4 4 4 5 3 1 1 2 2 4 6 2 1 2 3 3 8 16 17 17 25 35 39 41 40 40 41
20 9 9 19 26 34 28 9 3 7 5 4 6 7 7 4 4 7 7 6 4 2 2 2 2 3 3 3 4 5 5 3 2 3 2 1 1 1 2 1 6 6 4 3 3 2 2 3 2 1 2 2 3 3 2 1 2 1 2 2 3 3 3 3 4 2 2 3 2 2 4 5 2 2 2 4 3 5 15 20 18 21 28 31 32 34 36 38
12 10 9 17 28 33 21 6 6 8 4 4 6 6 7 5 5 8 7 7 5 3 3 2 1 3 2 3 5 6 6 3 2 2 2 1 1 1 2 3 4 3 3 1 3 5 4 2 3 2 1 2 3 2 2 2 0 3 2 1 3 3 4 2 1 3 2 5 7 4 8 5 2 3 3 3 2 3 9 15 16 16 20 24 27 31 35 36
6 5 5 14 29 29 13 4 8 8 6 7 7 7 7 4 6 10 10 8 6 4 4 3 2 4 3 3 4 4 4 3 1 2 1 1 0 0 2 4 4 4 3 3 7 8 4 1 3 4 3 5 3 2 3 2 1 2 1 2 4 5 7 4 2 3 4 3 7 6 9 5 2 3 3 4 3 3 5 9 13 15 16 20 27 33 35 36
5 2 2 8 19 20 8 3 8 8 7 9 7 8 11 6 3 8 8 7 5 4 5 3 4 5 3 3 4 3 4 3 3 3 3 3 1 0 2 5 5 6 6 8 11 9 2 1 5 6 7 7 5 5 4 3 4 3 3 4 5 5 7 5 3 4 4 2 4 7 8 5 3 2 4 5 3 3 3 6 12 16 19 21 26 30 33 34
4 2 2 3 7 10 4 3 6 5 6 10 5 4 11 10 3 3 5 3 5 6 4 2 4 5 4 5 5 4 6 5 4 4 3 4 2 1 2 4 4 7 9 8 8 7 3 3 7 9 11 8 5 5 3 3 3 5 5 5 6 6 8 8 7 6 4 2 8 7 4 4 5 4 5 5 3 4 5 8 13 17 20 22 22 23 26 30
3 2 3 2 1 2 2 4 6 3 4 6 4 2 9 11 6 4 4 1 4 9 4 1 5 8 9 10 6 4 6 5 4 5 3 2 3 2 2 2 3 7 9 5 3 5 3 4 6 7 11 9 4 5 4 3 2 4 5 8 8 9 11 12 12 10 7 8 12 5 5 5 6 5 6 7 7 6 7 9 11 11 14 17 18 19 23 28
3 3 3 3 1 1 3 0 5 4 2 3 2 3 8 11 9 6 4 3 3 7 6 4 7 9 10 9 7 5 6 6 4 4 4 3 4 4 3 2 2 5 6 3 2 4 3 2 3 5 8 8 3 4 4 5 4 4 7 11 12 11 12 12 14 14 12 12 7 3 4 8 6 5 8 10 9 6 5 6 7 8 10 13 16 19 23 27
5 4 4 4 3 2 4 2 3 4 3 3 3 4 6 8 9 6 4 6 5 4 5 6 7 8 9 9 9 7 8 8 7 6 7 5 3 3 3 3 3 3 3 3 2 3 3 2 2 3 4 4 1 3 3 4 5 5 10 15 11 7 8 11 11 8 6 7 3 4 7 10 4 7 10 10 8 6 6 9 9 10 11 13 16 19 22 25
9 8 7 6 3 2 1 1 2 3 2 3 4 4 5 7 8 5 3 5 7 6 8 9 7 7 7 8 10 9 9 12 9 8 12 11 6 6 6 4 7 6 3 3 3 3 4 2 2 3 3 2 1 4 4 2 1 5 15 17 11 8 7 8 7 6 6 7 6 6 9 9 4 8 9 8 8 9 11 12 12 12 13 13 15 16 18 21
13 10 9 6 2 3 4 2 2 3 3 4 6 4 4 6 6 7 4 3 4 8 12 13 10 7 4 7 11 12 11 12 7 6 11 10 7 8 7 6 9 9 5 5 3 2 4 4 2 3 3 1 1 2 4 3 0 8 14 13 12 12 8 4 4 7 9 9 8 8 9 6 4 7 7 6 8 10 12 13 13 13 13 13 15 14 15 16
Wind_Direction
242 237 233 232 230 227 221 219 215 213 216 216 218 219 225 228 229 243 249 255 267 279 289 296 304 308 314 317 318 320 321 324 325 324 323 322 319 303 159 135 119 85 51 22 8 0 352 350 340 342 343 10 28 41 55 52 54 43 88 81 18 179 192 178 182 192 164 287 290 333 347 359 322 335 338 323 296 296 305 309 314 306 299 297 296 301 305 309
258 257 255 250 247 246 241 238 233 230 234 234 234 237 241 243 246 256 258 264 271 279 291 296 302 307 312 315 317 319 320 324 323 322 329 347 56 118 121 110 88 53 24 358 349 342 333 332 330 340 352 20 32 44 65 47 48 63 107 75 250 203 209 189 183 193 186 300 298 318 332 324 308 317 331 327 298 312 318 319 330 336 338 312 306 312 313 311
262 262 262 261 259 257 255 252 248 243 243 242 242 244 246 250 254 260 266 269 275 282 288 295 299 303 308 311 316 319 322 325 326 342 73 103 111 113 108 86 50 22 5 348 341 334 318 315 320 339 359 34 42 54 70 46 43 77 102 81 241 217 229 222 208 219 239 288 299 314 316 301 304 304 314 313 304 313 323 323 331 331 325 322 321 324 328 330
263 263 263 264 264 263 262 260 258 256 254 252 251 251 251 256 260 264 269 270 276 282 285 291 295 300 304 308 314 317 325 328 333 115 120 118 117 111 87 42 14 359 351 343 337 331 313 298 290 332 10 50 43 60 64 34 44 144 128 155 210 184 226 241 234 278 279 283 291 299 301 304 312 305 292 297 310 316 339 335 321 316 315 318 321 325 347 22
262 263 264 264 265 265 264 262 262 262 261 261 259 259 260 261 266 269 272 274 276 280 284 289 293 298 300 305 310 314 333 347 82 132 140 139 130 296 320 322 325 333 338 338 335 328 295 259 253 353 40 55 47 57 45 45 96 153 177 183 171 152 223 288 305 318 306 292 286 286 290 298 306 306 288 267 263 294 313 308 301 302 303 309 317 328 16 42
263 263 263 264 264 264 265 264 263 263 263 265 265 266 268 268 271 272 274 276 278 280 283 286 289 293 295 300 303 308 328 336 179 155 193 255 282 285 291 296 301 312 323 328 326 322 270 231 229 135 71 56 63 78 83 128 134 172 255 228 184 190 238 287 298 303 302 293 284 280 286 290 297 308 296 271 265 286 304 304 300 298 296 304 323 348 13 14
262 262 261 261 262 262 263 264 264 264 264 265 266 268 270 271 273 274 275 276 277 281 283 284 287 289 292 296 298 301 295 271 262 256 260 267 271 274 279 283 288 297 307 310 307 300 244 221 205 152 96 58 122 128 117 160 158 145 254 281 252 238 254 287 295 297 296 289 288 289 286 285 289 297 301 314 308 296 307 318 321 305 310 294 298 353 4 2
261 261 260 260 260 260 261 262 262 262 264 264 266 268 268 270 272 274 275 275 277 279 280 282 284 285 289 291 295 298 287 281 279 269 266 264 264 267 271 275 281 289 293 291 289 273 233 218 209 175 106 88 193 167 143 170 180 153 221 272 250 261 277 293 292 292 293 290 292 289 275 278 289 277 285 8 14 281 297 271 107 129 150 166 183 20 20 3
260 260 260 260 259 259 259 260 260 260 262 263 264 266 267 269 269 272 273 274 276 277 278 279 280 282 284 285 292 297 288 286 285 271 266 262 261 261 264 270 275 279 278 269 267 255 224 206 213 211 220 206 175 167 152 164 270 188 200 264 264 277 291 295 288 288 289 287 288 279 275 285 308 235 149 55 31 209 176 176 151 149 189 105 58 39 25 4
259 260 260 260 259 258 258 257 258 259 259 261 262 264 265 267 267 268 270 272 273 273 275 275 277 279 280 282 281 278 281 282 277 268 263 262 261 256 257 265 271 274 269 255 253 245 217 205 205 194 217 198 151 150 158 156 299 196 227 286 275 286 297 293 283 282 282 280 275 258 273 286 135 163 126 50 37 137 157 159 146 50 6 37 36 25 18 7
257 259 260 259 258 257 256 255 255 256 257 258 260 262 263 265 266 266 267 269 270 272 275 275 278 278 279 277 251 239 272 277 268 263 256 257 256 249 246 255 270 272 260 249 240 226 211 211 194 174 199 173 148 168 190 190 317 338 328 301 290 306 305 291 282 280 279 280 274 241 255 298 126 150 102 45 40 97 184 155 104 16 28 32 20 9 3 356
256 257 258 257 257 256 254 253 252 252 254 255 257 259 261 263 265 266 268 270 272 274 275 276 278 276 275 269 254 255 270 268 263 260 253 253 251 249 255 264 268 263 256 245 226 212 202 206 197 194 204 163 152 161 188 188 277 334 6 323 304 335 324 301 311 311 222 275 305 241 272 338 73 121 70 33 43 154 251 214 57 31 37 22 7 353 349 351
254 255 255 255 255 254 252 251 250 249 251 253 256 258 260 263 266 268 270 272 274 274 275 274 274 273 268 262 263 266 268 263 262 260 256 256 256 257 261 264 260 252 245 229 211 202 197 206 207 207 194 168 168 166 147 105 41 309 25 25 320 347 330 314 33 13 345 270 239 99 285 303 309 123 41 24 53 213 267 61 74 58 47 23 9 354 356 360
251 252 253 253 251 250 249 249 249 248 250 253 255 258 261 263 265 267 268 270 271 270 271 269 268 267 257 256 267 267 262 260 258 255 255 254 255 257 257 254 247 237 228 215 208 209 211 215 212 200 183 178 166 147 106 29 38 320 5 32 359 351 285 298 352 320 357 284 198 138 223 269 218 159 18 21 34 228 194 77 81 75 63 52 35 16 8 9
249 250 249 249 249 247 247 247 248 249 251 254 256 259 260 261 262 262 263 263 263 264 264 264 262 260 256 261 265 263 259 256 253 251 250 249 250 251 244 236 230 221 216 216 218 223 218 203 195 179 162 168 144 120 32 355 20 21 327 309 341 157 272 306 340 5 89 83 107 127 202 282 205 121 19 30 45 150 105 86 83 81 75 71 49 43 34 29
246 246 246 248 247 246 246 247 249 251 252 254 255 257 257 257 257 257 258 258 258 259 258 259 256 248 254 266 260 256 254 247 247 247 245 245 243 238 229 221 216 214 218 222 221 211 190 176 168 151 148 153 130 102 49 1 337 2 131 248 272 202 282 320 344 31 65 121 40 78 206 291 202 108 27 49 97 98 103 91 82 82 76 74 58 52 56 55
246 245 245 246 246 246 246 247 250 251 251 253 253 254 254 254 254 255 254 254 255 253 252 252 249 246 251 257 254 250 247 242 242 241 237 237 233 229 221 212 209 211 211 199 187 175 169 161 153 156 130 106 106 100 72 317 280 308 42 228 246 217 231 305 310 2 36 101 47 16 181 266 242 105 35 52 97 93 102 95 85 83 72 73 65 57 60 60
247 246 245 245 246 247 246 247 248 247 248 248 249 249 249 251 251 252 252 251 248 248 254 235 214 261 256 242 240 242 243 237 234 233 229 224 220 217 213 208 204 195 175 163 169 165 162 149 133 134 33 64 119 120 164 229 212 189 171 191 243 237 224 263 273 298 12 28 343 335 275 269 268 46 41 48 84 97 103 99 93 89 79 80 76 73 72 69
247 246 244 244 245 245 245 245 242 243 244 243 243 243 244 248 250 252 249 241 226 214 243 216 195 188 238 227 229 236 240 229 223 223 220 215 208 202 198 193 187 177 156 148 173 164 156 116 94 144 227 194 182 175 200 207 161 165 168 154 192 225 243 241 249 258 333 341 283 269 259 268 274 296 30 50 81 95 105 105 100 97 90 89 86 85 85 86
245 245 243 242 243 242 241 239 238 239 239 237 235 232 235 235 243 258 241 234 233 231 238 229 213 215 223 234 228 224 223 216 215 214 211 209 201 189 179 171 165 167 158 151 174 167 156 142 165 215 216 190 193 199 200 148 121 137 143 150 190 215 262 257 256 287 102 173 262 247 248 267 266 284 352 41 100 88 97 105 99 100 99 97 97 98 98 100
243 244 244 242 241 240 238 236 235 236 236 233 225 220 220 210 207 262 241 243 251 246 245 247 240 233 235 243 235 218 211 207 208 206 204 200 191 181 174 164 148 160 192 137 123 137 148 175 218 223 198 166 186 191 166 115 126 127 162 210 238 217 253 262 256 306 14 184 265 333 307 274 261 289 356 27 100 67 84 108 105 108 108 108 110 109 109 107
242 242 242 240 238 238 237 234 234 233 232 228 221 217 217 216 224 247 268 274 269 257 248 244 242 240 239 237 233 224 207 200 206 202 197 189 186 186 174 163 154 165 168 123 111 119 159 218 237 221 137 111 101 136 150 175 178 166 153 188 260 233 265 288 301 339 21 177 259 6 331 274 269 8 20 47 83 77 96 121 115 122 120 118 121 118 122 123
239 238 237 236 236 235 233 232 230 229 228 225 224 221 218 223 229 248 271 284 276 263 249 240 239 239 237 236 234 227 212 212 216 205 198 190 187 191 177 162 160 145 151 174 165 160 186 244 241 198 144 122 82 109 130 140 187 195 167 175 244 223 183 280 296 339 17 113 256 342 307 275 276 70 32 57 95 94 95 112 112 122 124 121 127 127 133 137
233 232 231 232 232 231 229 226 223 226 228 227 228 225 221 226 229 257 271 273 281 263 248 242 239 237 236 235 233 225 219 222 221 206 203 196 184 184 185 168 143 141 183 197 184 182 214 243 191 146 144 157 165 138 137 162 231 230 199 206 231 209 205 233 281 333 348 25 9 322 308 290 257 202 254 74 107 97 94 110 104 110 120 123 131 134 137 139
229 228 228 227 228 227 222 220 220 225 228 227 228 220 215 219 215 242 274 290 287 261 246 237 232 236 233 229 226 217 218 225 223 213 206 200 188 173 176 173 160 187 196 178 175 216 250 230 147 119 127 164 173 187 185 188 217 276 223 214 220 213 217 229 354 14 357 352 344 36 307 289 312 265 214 186 126 81 85 105 102 113 130 138 140 137 139 138
229 227 225 222 223 216 211 219 224 226 225 224 222 206 202 197 176 180 106 26 288 232 194 207 208 220 216 212 204 190 210 234 217 214 204 199 196 182 162 162 149 199 177 145 160 223 241 202 145 140 151 152 166 227 222 176 153 282 243 210 211 204 200 199 145 114 168 257 308 52 170 256 316 312 220 175 158 84 56 99 124 148 150 154 149 142 143 140
230 228 223 221 217 205 205 218 223 221 219 220 209 190 187 177 151 140 92 7 278 182 145 171 174 182 192 188 177 169 195 191 183 202 196 192 197 191 185 169 122 190 161 130 197 246 177 142 101 131 142 141 169 234 219 155 138 239 244 164 168 178 186 185 158 168 219 244 325 13 130 221 296 293 274 154 157 114 277 233 188 171 164 161 155 151 149 144
233 228 224 220 216 210 209 214 219 216 213 211 196 182 175 166 154 129 102 305 265 131 130 164 157 167 169 167 169 163 135 139 145 190 186 184 191 187 201 196 163 169 160 150 211 268 152 168 182 155 134 167 197 217 182 154 152 243 213 124 141 156 162 151 137 171 235 55 304 301 146 200 268 272 338 107 189 255 228 222 210 183 175 169 164 159 152 146
233 228 225 220 217 215 211 212 216 212 207 196 183 178 167 159 151 106 93 238 204 107 117 153 146 152 149 154 172 163 118 128 123 166 169 176 186 179 187 189 156 136 125 155 205 248 123 186 191 154 147 199 202 214 174 166 183 188 133 94 83 79 88 98 116 135 77 86 240 247 183 192 268 276 301 105 243 247 217 204 195 186 182 176 171 163 155 150
233 229 224 221 217 212 209 211 212 204 194 185 177 171 161 154 137 115 200 226 174 106 116 147 155 153 144 143 179 179 120 92 111 138 147 161 173 156 124 143 130 121 64 7 184 230 21 89 169 156 174 177 137 80 117 138 136 137 117 75 59 40 44 50 61 96 76 270 241 237 199 170 259 275 234 189 230 206 166 157 180 190 187 181 176 167 160 155
234 230 224 222 220 213 208 211 209 197 185 178 174 167 158 147 106 178 212 219 67 119 116 137 166 149 151 149 169 173 100 62 135 137 134 139 150 134 119 131 111 88 23 330 280 302 360 93 250 194 165 133 103 69 47 72 111 120 97 90 90 1 12 25 357 47 134 252 259 257 194 147 206 257 230 208 232 185 162 167 175 189 191 184 178 171 165 160
233 231 228 224 223 216 212 214 208 193 183 176 172 166 156 142 215 209 217 72 105 199 145 162 190 159 168 128 105 157 117 109 159 134 134 143 152 164 156 167 155 93 321 233 219 333 265 228 250 156 167 155 120 80 47 39 75 95 95 110 112 346 13 6 305 285 220 244 277 268 174 166 231 247 214 192 209 207 196 190 181 183 185 182 178 173 169 164
233 230 230 227 225 219 216 218 208 192 186 176 173 170 157 197 213 210 213 188 207 202 120 130 121 134 155 126 116 172 122 152 183 137 123 122 148 201 226 179 157 127 171 194 171 172 260 286 200 137 199 195 166 137 139 173 150 153 149 137 136 110 78 281 263 276 268 256 291 284 215 201 266 271 222 183 205 234 225 207 192 186 182 179 177 174 171 167
232 230 233 230 230 226 221 218 205 195 189 176 174 178 186 216 214 190 198 207 236 63 87 105 107 116 146 153 204 181 127 186 173 127 94 114 141 207 228 223 184 118 103 135 165 174 203 283 198 167 196 189 181 170 155 146 145 175 161 134 146 153 162 219 220 215 254 282 305 303 262 188 208 264 273 248 286 281 246 215 197 192 185 180 177 176 175 173
234 231 231 228 229 228 225 218 204 197 191 179 175 193 202 216 225 161 187 191 141 88 68 77 107 120 170 225 242 197 173 209 160 121 134 160 168 197 196 201 194 151 133 158 204 163 175 268 253 300 48 160 176 187 124 115 124 207 129 115 162 180 152 155 188 176 174 302 294 251 234 222 191 210 293 293 309 304 255 209 192 192 190 184 183 182 181 178
233 225 221 220 223 223 223 217 205 198 193 183 180 211 203 214 202 168 180 149 150 143 115 92 93 112 183 210 230 218 199 150 151 146 184 193 204 201 193 209 192 178 165 161 180 145 130 280 304 8 33 86 165 183 98 110 167 154 131 173 215 174 118 117 205 89 81 278 265 197 229 282 318 250 308 14 314 304 286 197 185 187 188 187 189 188 185 182
226 218 215 216 220 220 219 216 206 202 199 191 198 215 204 221 181 165 164 126 133 141 133 156 181 153 182 190 193 199 186 136 156 166 183 195 220 190 191 236 192 186 199 182 184 190 153 246 321 49 95 359 63 105 63 38 102 121 178 205 192 125 92 106 194 14 44 252 271 231 218 243 164 233 317 35 250 254 234 194 183 184 189 192 194 192 188 185
225 216 212 216 220 217 215 214 206 203 204 202 224 223 210 208 182 144 153 144 123 141 149 186 187 165 181 188 191 184 174 171 170 171 177 193 241 179 167 208 191 192 204 190 146 216 144 152 310 9 140 288 47 102 74 21 51 114 184 179 116 137 142 98 145 193 215 250 284 295 249 230 199 206 216 210 219 216 199 193 189 191 193 195 196 195 191 188
227 211 209 219 220 216 218 216 204 200 202 208 222 223 201 178 198 162 163 155 105 147 163 180 169 126 165 173 164 167 174 178 167 170 180 181 227 186 168 185 186 198 203 180 158 200 123 156 253 319 240 195 47 94 170 219 27 58 96 90 67 153 160 151 147 161 188 229 284 297 290 240 228 206 187 200 206 189 177 192 203 200 196 195 196 195 193 192
218 201 214 222 217 217 221 215 201 197 202 214 213 217 164 171 204 188 178 168 118 161 183 173 150 123 147 152 76 161 177 176 165 176 203 177 180 195 192 179 141 164 180 162 161 132 94 162 204 287 295 181 162 212 186 178 163 115 131 159 198 123 111 188 196 112 134 181 225 286 285 257 243 211 191 202 200 179 181 192 200 199 196 197 198 197 195 194
207 199 230 216 213 215 212 204 197 196 209 216 213 217 189 168 170 188 189 185 172 168 173 156 150 144 142 138 130 164 143 155 174 182 204 185 175 176 208 165 139 146 139 142 170 177 119 154 161 164 208 188 220 246 191 188 183 162 177 186 185 173 127 167 250 163 108 187 185 214 275 267 236 205 210 215 202 191 193 190 188 193 196 199 200 199 199 198
197 201 227 206 210 210 199 188 191 198 207 213 213 213 188 148 153 178 184 184 178 156 129 123 135 144 149 154 158 145 123 136 201 204 212 197 171 133 271 135 148 150 131 129 172 162 116 116 116 182 215 212 257 304 323 235 185 145 205 192 173 177 148 170 226 215 124 231 143 122 274 278 263 234 264 264 253 213 202 194 189 195 198 200 202 202 203 202
190 193 201 194 201 199 190 180 183 191 205 201 195 202 188 170 165 165 172 183 177 149 145 140 156 165 170 167 147 145 151 159 186 193 220 218 139 29 343 132 143 135 108 122 153 133 119 114 117 255 293 327 343 352 351 350 90 168 239 165 160 191 159 179 209 157 166 211 132 98 263 268 304 333 310 296 288 228 207 201 198 200 203 204 205 206 208 206
178 182 180 180 186 187 186 190 189 191 195 170 177 187 185 195 180 166 178 188 179 160 149 150 177 165 157 138 136 151 162 161 177 194 196 182 164 74 64 108 119 85 55 101 155 162 170 131 131 156 309 328 341 353 330 329 286 213 221 164 202 172 110 107 125 105 234 208 152 186 249 251 292 315 332 347 332 242 217 210 208 208 208 209 209 210 211 209
144 164 173 178 184 189 199 202 183 189 186 178 186 180 173 196 201 187 182 172 172 162 141 159 146 117 112 97 103 132 147 133 155 198 184 163 155 104 114 126 129 101 69 91 130 145 162 170 152 163 206 228 222 204 216 230 195 192 180 199 218 185 157 162 142 167 233 194 147 205 248 262 329 316 306 326 325 274 237 214 214 218 217 216 215 213 213 212
135 154 157 176 192 204 225 190 168 175 183 186 191 182 180 187 207 192 177 167 180 147 109 129 120 97 99 113 112 147 168 150 150 161 173 189 216 321 134 143 145 140 133 136 141 140 124 231 192 200 223 221 204 204 200 143 137 182 198 195 201 190 173 154 138 192 207 169 198 229 236 246 266 259 264 282 284 265 250 207 210 217 219 221 221 218 216 215
122 176 160 147 202 213 215 180 175 165 171 181 183 182 182 178 164 183 181 176 181 159 107 75 135 136 158 156 148 174 180 173 171 161 164 180 177 68 120 128 127 144 142 139 149 141 107 218 209 214 230 224 172 179 183 122 153 190 194 208 206 180 167 173 201 210 143 157 248 241 182 220 241 211 228 252 238 232 233 214 213 218 220 223 223 222 221 222
129 159 159 129 202 215 202 182 173 139 127 162 172 165 174 174 164 166 172 121 163 173 163 102 176 180 173 162 158 165 169 177 184 171 164 171 154 110 111 99 103 147 147 127 141 139 128 231 212 201 232 234 165 159 173 147 192 203 196 219 218 191 181 190 211 212 177 212 246 225 145 214 235 205 209 214 206 211 214 215 220 223 225 226 225 225 226 227
159 156 164 168 144 5 335 111 144 146 141 142 152 170 174 179 177 168 148 108 160 189 186 187 195 190 176 164 158 163 172 176 182 181 176 173 169 154 144 129 129 158 155 121 129 149 142 237 206 187 237 246 178 150 167 178 219 237 224 229 227 212 199 198 212 216 208 226 242 137 180 240 230 194 210 210 203 202 199 208 218 222 228 229 228 229 230 230
180 174 158 157 147 57 4 7 133 167 198 190 200 199 183 181 178 169 156 154 164 192 197 197 189 177 177 174 175 190 188 173 176 187 177 171 175 176 184 176 146 155 160 133 155 182 173 196 157 155 230 264 139 119 135 184 213 235 247 243 228 209 209 211 218 214 205 236 236 151 227 254 218 175 205 213 202 197 211 221 224 229 235 234 232 234 236 237
190 177 152 137 139 134 102 45 133 158 194 202 204 193 190 199 186 161 166 187 177 168 182 188 170 158 180 190 194 207 194 177 182 183 176 179 182 183 195 178 145 145 161 154 153 181 188 186 83 127 201 246 162 146 145 128 151 247 257 251 221 197 212 210 204 190 181 210 221 210 236 254 214 183 203 216 208 209 223 230 233 239 241 240 239 241 244 245
192 184 171 145 119 160 156 118 143 186 210 199 199 196 187 194 177 161 180 236 187 174 187 187 167 147 172 198 208 214 196 183 184 168 171 180 174 171 183 171 152 151 162 162 145 154 171 162 130 161 194 247 41 147 145 108 276 254 256 244 211 206 210 171 183 209 199 195 207 224 237 238 187 171 187 210 209 213 229 236 238 244 246 247 249 250 253 255